GW4718 Weather Reports


time (UTC)temp
F
wind
direction
speed
knots
gust
knots
rain 1hr
in
rain 24hr
in
rain mn
in
humidity
%
barometer
mb
20260906152738 66 34 1.7 1.7 0.00 0.00 0.00 92 1020.5
20260906152233 65 19 1.7 2.6 0.00 0.00 0.00 91 1020.4
20260906151732 65 12 1.7 2.6 0.00 0.00 0.00 92 1020.5
20260906151228 65 17 1.7 2.6 0.00 0.00 0.00 92 1020.5
20260906150723 65 14 0.9 1.7 0.00 0.00 0.00 93 1020.6
20260906150218 65 4 1.7 5.2 0.00 0.00 0.00 93 1020.6
20260906145717 65 15 1.7 2.6 0.00 0.00 0.00 93 1020.4
20260906145212 65 35 2.6 6.1 0.00 0.00 0.00 93 1020.3
20260906144712 65 25 4.3 5.2 0.00 0.00 0.00 93 1020.3
20260906144207 65 40 2.6 2.6 0.00 0.00 0.00 94 1020.3
20260906143706 65 18 1.7 2.6 0.00 0.00 0.00 93 1020.1
20260906143204 65 25 1.7 2.6 0.00 0.00 0.00 94 1020.0
20260906142703 65 33 1.7 2.6 0.00 0.00 0.00 94 1020.0
20260906142159 65 14 1.7 2.6 0.00 0.00 0.00 95 1019.9
20260906141657 65 16 1.7 1.7 0.00 0.00 0.00 95 1019.8
20260906141152 65 18 1.7 2.6 0.00 0.00 0.00 95 1019.8
20260906140651 65 25 0.9 1.7 0.00 0.00 0.00 95 1019.9
20260906140146 65 14 1.7 1.7 0.00 0.00 0.00 95 1019.8
20260906135643 65 2 0.9 1.7 0.00 0.00 0.00 96 1019.8
20260906135139 65 17 1.7 2.6 0.00 0.00 0.00 96 1019.6
20260906134635 65 31 3.5 3.5 0.00 0.00 0.00 97 1019.6
20260906134130 65 12 0.9 2.6 0.00 0.00 0.00 98 1019.7
20260906133626 65 31 1.7 2.6 0.00 0.00 0.00 98 1019.7
20260906133120 64 53 0.0 1.7 0.00 0.00 0.00 99 1019.7
20260906132615 64 34 1.7 1.7 0.00 0.00 0.00 99 1019.7
20260906132111 64 13 1.7 2.6 0.00 0.00 0.00 99 1019.7
20260906131607 65 26 1.7 5.2 0.00 0.00 0.00 99 1019.5
20260906131102 65 10 0.9 2.6 0.00 0.00 0.00 99 1019.5
20260906130601 65 19 1.7 3.5 0.00 0.00 0.00 99 1019.6
20260906130057 65 24 1.7 2.6 0.00 0.00 0.00 99 1019.6
20260906125555 65 8 0.9 2.6 0.00 0.00 0.00 99 1019.3
20260906125054 65 19 1.7 1.7 0.00 0.00 0.00 99 1019.6
20260906124550 65 13 0.9 1.7 0.00 0.00 0.00 99 1019.4
20260906124044 65 20 1.7 2.6 0.00 0.00 0.00 99 1019.4
20260906123544 65 36 1.7 1.7 0.00 0.00 0.00 99 1019.2
20260906123040 65 17 0.9 0.9 0.00 0.00 0.00 99 1019.3
20260906122538 65 9 0.0 1.7 0.00 0.00 0.00 99 1019.2
20260906122035 65 24 0.0 0.9 0.00 0.00 0.00 99 1019.1
20260906121525 65 30 0.9 3.5 0.00 0.00 0.00 99 1019.0
20260906121021 65 57 0.9 2.6 0.00 0.00 0.00 99 1019.1
20260906120521 65 17 0.9 1.7 0.00 0.00 0.00 99 1018.9
20260906120019 65 0 0.0 0.9 0.00 0.00 0.00 99 1019.0
20260906115514 65 7 0.9 0.9 0.00 0.00 0.00 99 1018.8
20260906115013 65 20 0.0 1.7 0.00 0.00 0.00 99 1018.9
20260906114508 65 351 0.0 0.0 0.00 0.00 0.00 99 1018.8
20260906114004 65 31 0.0 0.9 0.00 0.00 0.00 99 1018.6
20260906113502 65 45 1.7 2.6 0.00 0.00 0.00 99 1018.6
20260906112958 65 26 0.9 3.5 0.00 0.00 0.00 99 1018.8
20260906112453 65 11 0.0 0.0 0.00 0.00 0.00 99 1018.5
20260906111949 65 26 0.0 0.0 0.00 0.00 0.00 99 1018.5
20260906111448 65 44 0.0 0.0 0.00 0.00 0.00 99 1018.3
20260906110943 65 22 0.0 0.0 0.00 0.00 0.00 99 1018.3
20260906110438 65 37 0.0 0.0 0.00 0.00 0.00 99 1018.5
20260906105937 65 37 0.0 0.0 0.00 0.00 0.00 99 1018.2
20260906105433 65 28 0.0 0.0 0.00 0.00 0.00 99 1018.2
20260906104929 65 43 0.0 0.0 0.00 0.00 0.00 99 1018.1
20260906104428 65 32 0.0 0.0 0.00 0.00 0.00 99 1018.0
20260906103927 65 13 0.0 0.0 0.00 0.00 0.00 99 1018.0
20260906103425 65 8 0.0 0.0 0.00 0.00 0.00 99 1018.0
20260906102921 65 8 0.0 0.0 0.00 0.00 0.00 99 1018.0
20260906102420 65 347 0.0 0.0 0.00 0.00 0.00 99 1017.8
20260906101915 65 32 0.0 0.0 0.00 0.00 0.00 99 1017.9
20260906101410 65 29 0.0 0.0 0.00 0.00 0.00 99 1017.9
20260906100906 65 18 0.0 0.0 0.00 0.00 0.00 99 1017.7
20260906100405 65 22 0.0 0.0 0.00 0.00 0.00 99 1018.0
20260906095900 65 30 0.0 0.0 0.00 0.00 0.00 99 1017.9
20260906095356 65 23 0.0 0.0 0.00 0.00 0.00 99 1017.7
20260906094855 65 20 0.0 0.0 0.00 0.00 0.00 99 1017.7
20260906094351 66 25 0.0 0.0 0.00 0.00 0.00 99 1017.8
20260906093847 66 23 0.0 0.0 0.00 0.00 0.00 99 1017.6
20260906093343 66 13 0.0 0.0 0.00 0.00 0.00 99 1017.6
20260906092842 66 16 0.0 0.0 0.00 0.00 0.00 99 1017.7
20260906092337 66 15 0.0 0.0 0.00 0.00 0.00 99 1017.8
20260906091833 66 31 0.0 0.0 0.00 0.00 0.00 99 1017.6
20260906091329 66 31 0.0 0.0 0.00 0.00 0.00 99 1017.7
20260906090825 66 31 0.0 0.0 0.00 0.00 0.00 99 1017.6
20260906090324 66 17 0.0 0.0 0.00 0.00 0.00 99 1017.6
20260906085819 66 16 0.0 0.0 0.00 0.00 0.00 99 1017.5
20260906085317 66 16 0.0 0.0 0.00 0.00 0.00 99 1017.3
20260906084812 66 16 0.0 0.0 0.00 0.00 0.00 99 1017.5
20260906084312 66 15 0.0 0.0 0.00 0.00 0.00 99 1017.4
20260906083801 66 17 0.0 0.0 0.00 0.00 0.00 99 1017.3
20260906083256 66 20 0.0 0.0 0.00 0.00 0.00 99 1017.4
20260906082751 66 20 0.0 0.0 0.00 0.00 0.00 99 1017.5
20260906082246 66 19 0.0 0.0 0.00 0.00 0.00 99 1017.4
20260906081743 66 35 0.0 0.0 0.00 0.00 0.00 99 1017.4
20260906081237 66 40 0.0 0.0 0.00 0.00 0.00 99 1017.4
20260906080734 66 303 0.0 0.0 0.00 0.00 0.00 99 1017.4
20260906080230 66 302 0.0 0.0 0.00 0.00 0.00 99 1017.4
20260906075724 66 301 0.0 0.0 0.00 0.00 0.00 99 1017.4
20260906075223 66 300 0.0 0.0 0.00 0.00 0.00 99 1017.4
20260906074719 66 335 0.0 0.0 0.00 0.00 0.00 99 1017.3
20260906074213 66 335 0.0 0.0 0.00 0.00 0.00 99 1017.3
20260906073708 66 335 0.0 0.0 0.00 0.00 0.00 99 1017.2
20260906073203 66 335 0.0 0.0 0.00 0.00 0.00 99 1017.4
20260906072658 66 339 0.0 0.0 0.00 0.00 0.00 99 1017.5
20260906072154 66 354 0.0 0.0 0.00 0.00 0.00 99 1017.3
20260906071650 66 354 0.0 0.0 0.00 0.00 0.00 99 1017.2
20260906071149 66 3 0.0 0.0 0.00 0.00 0.00 99 1017.4
20260906070646 66 2 0.0 0.0 0.00 0.00 0.00 99 1017.3
20260906070142 66 356 0.0 0.0 0.00 0.00 0.00 99 1017.3
20260906065641 67 0 0.0 0.0 0.00 0.00 0.00 99 1017.4
20260906065136 67 2 0.0 0.0 0.00 0.00 0.00 99 1017.5
20260906064632 67 2 0.0 0.0 0.00 0.00 0.00 99 1017.3
20260906064126 67 2 0.0 0.0 0.00 0.00 0.00 99 1017.4
20260906063622 67 352 0.0 0.0 0.00 0.00 0.00 99 1017.3
20260906063117 67 273 0.0 0.0 0.00 0.00 0.00 99 1017.4
20260906062613 67 271 0.0 0.0 0.00 0.00 0.00 99 1017.4
20260906062112 67 271 0.0 0.0 0.00 0.00 0.00 99 1017.5
20260906061608 67 271 0.0 0.0 0.00 0.00 0.00 99 1017.5
20260906061108 67 275 0.0 0.0 0.00 0.00 0.00 99 1017.6
20260906060604 67 275 0.0 0.0 0.00 0.00 0.00 99 1017.4
20260906055557 67 273 0.0 0.0 0.00 0.00 0.00 99 1017.5
20260906055052 67 49 0.0 0.0 0.00 0.00 0.00 99 1017.7
20260906054547 67 47 0.0 0.0 0.00 0.00 0.00 99 1017.6
20260906054042 67 351 0.0 0.0 0.00 0.00 0.00 99 1017.6
20260906053538 67 350 0.0 0.0 0.00 0.00 0.00 99 1017.4
20260906053034 67 265 0.0 0.0 0.00 0.00 0.00 99 1017.5
20260906052529 67 154 0.0 0.0 0.00 0.00 0.00 99 1017.3
20260906052026 67 154 0.0 0.0 0.00 0.00 0.00 99 1017.2
20260906051522 67 154 0.0 0.0 0.00 0.00 0.00 99 1017.5
20260906051017 67 156 0.0 0.0 0.00 0.00 0.00 99 1017.4
20260906050512 67 156 0.0 0.0 0.00 0.00 0.00 99 1017.6
20260906050007 67 156 0.0 0.0 0.00 0.00 0.00 99 1017.5
20260906045504 67 156 0.0 0.0 0.00 0.00 0.00 99 1017.4
20260906044955 67 156 0.0 0.0 0.00 0.00 0.00 99 1017.4
20260906044450 67 162 0.0 0.0 0.00 0.00 0.00 99 1017.5
20260906043946 67 162 0.0 0.0 0.00 0.00 0.00 99 1017.6
20260906043441 67 162 0.0 0.0 0.00 0.00 0.00 99 1017.5
20260906042937 67 149 0.0 0.0 0.00 0.00 0.00 99 1017.5
20260906042436 67 132 0.0 0.0 0.00 0.00 0.00 99 1017.6
20260906041930 67 143 0.0 0.0 0.00 0.00 0.00 99 1017.7
20260906041427 67 164 0.0 0.0 0.00 0.00 0.00 99 1017.4
20260906040927 67 181 0.0 0.0 0.00 0.00 0.00 99 1017.5
20260906040422 67 181 0.0 0.0 0.00 0.00 0.00 99 1017.4
20260906035917 67 151 0.0 0.0 0.00 0.52 0.52 99 1017.5
20260906035412 68 140 0.0 0.0 0.00 0.52 0.52 99 1017.7
20260906034908 68 140 0.0 0.0 0.00 0.52 0.52 99 1017.7
20260906034402 68 151 0.0 0.0 0.00 0.52 0.52 99 1017.8
20260906033858 68 181 0.0 0.0 0.00 0.52 0.52 99 1017.9
20260906033357 68 181 0.0 0.0 0.00 0.52 0.52 99 1017.8
20260906032854 68 181 0.0 0.0 0.00 0.52 0.52 99 1017.9
20260906032350 68 245 0.0 0.0 0.00 0.52 0.52 99 1017.9
20260906031844 68 171 0.0 0.0 0.00 0.52 0.52 99 1018.0
20260906031340 68 148 0.0 0.0 0.00 0.52 0.52 99 1017.8
20260906030840 68 148 0.0 0.0 0.00 0.52 0.52 99 1017.9
20260906030335 68 148 0.0 0.0 0.00 0.52 0.52 99 1017.9
20260906025834 68 148 0.0 0.0 0.00 0.52 0.52 99 1017.9
20260906025329 68 148 0.0 0.0 0.00 0.52 0.52 99 1018.1
20260906024827 68 148 0.0 0.0 0.00 0.52 0.52 99 1018.2
20260906024326 68 148 0.0 0.0 0.00 0.52 0.52 99 1018.2
20260906023823 68 187 0.0 0.0 0.00 0.52 0.52 99 1018.2
20260906023318 68 224 0.0 0.0 0.00 0.52 0.52 99 1018.0
20260906022813 68 224 0.0 0.0 0.00 0.52 0.52 99 1017.8
20260906022308 68 208 0.0 0.0 0.00 0.52 0.52 99 1017.9
20260906021804 68 200 0.0 0.0 0.00 0.52 0.52 99 1018.1
20260906021303 68 139 0.0 0.0 0.00 0.52 0.52 99 1017.9
20260906020758 68 98 0.0 0.0 0.00 0.52 0.52 99 1017.9
20260906020253 68 65 0.0 0.0 0.00 0.52 0.52 99 1017.8
20260906015752 68 47 0.0 0.0 0.00 0.52 0.52 99 1017.7
20260906015250 68 329 0.0 0.0 0.00 0.52 0.52 99 1017.6
20260906014745 69 63 0.0 0.0 0.00 0.52 0.52 99 1017.4
20260906014241 68 273 0.0 0.0 0.00 0.52 0.52 99 1017.5
20260906013738 69 260 0.0 0.0 0.07 0.52 0.52 99 1017.3
20260906013237 69 193 0.0 1.7 0.07 0.52 0.52 99 1017.0
20260906012732 69 243 0.0 0.0 0.12 0.51 0.51 99 1017.0
20260906012228 69 141 0.0 0.0 0.12 0.51 0.51 99 1017.0
20260906011723 69 48 0.0 0.0 0.00 0.49 0.49 99 1017.3
20260906011222 69 222 0.0 0.0 0.00 0.49 0.49 99 1017.2
20260906010719 69 222 0.0 0.0 0.00 0.49 0.49 99 1017.1
20260906010215 69 190 0.0 0.0 0.00 0.49 0.49 99 1017.0
20260906005715 69 214 0.0 0.0 0.00 0.49 0.49 99 1016.7
20260906005214 69 217 0.0 0.0 0.00 0.49 0.49 99 1017.0
20260906004713 69 121 0.0 0.0 0.00 0.49 0.49 99 1016.7
20260906004208 69 114 0.0 0.0 0.00 0.49 0.49 99 1016.9
20260906003703 69 117 0.0 0.0 0.00 0.49 0.49 99 1016.8
20260906003159 69 117 0.0 0.0 0.00 0.49 0.49 99 1016.8
20260906002659 69 108 0.0 0.0 0.00 0.49 0.49 99 1016.8
20260906002154 69 107 0.0 0.0 0.00 0.49 0.49 99 1016.8
20260906001649 69 106 0.0 0.0 0.00 0.49 0.49 99 1016.5
20260906001143 69 130 0.0 0.0 0.00 0.49 0.49 99 1016.8
20260906000639 69 136 0.0 0.0 0.00 0.49 0.49 99 1016.9
20260906000134 69 137 0.0 0.0 0.00 0.49 0.49 99 1016.3
20260905235633 69 136 0.0 0.0 0.00 0.49 0.49 99 1016.5
20260905235128 69 131 0.0 0.0 0.00 0.49 0.49 99 1016.7
20260905234624 69 132 0.0 0.0 0.00 0.49 0.49 99 1016.7
20260905234119 69 179 0.0 0.9 0.00 0.49 0.49 99 1016.7
20260905233614 69 160 0.0 0.0 0.00 0.49 0.49 99 1016.7
20260905233113 69 115 0.9 1.7 0.00 0.49 0.49 99 1016.4
20260905232609 69 99 0.0 0.9 0.00 0.49 0.49 99 1016.8
20260905232105 69 66 0.0 0.0 0.00 0.49 0.49 99 1016.8
20260905231559 69 11 0.0 0.0 0.00 0.49 0.49 99 1016.9
20260905231056 69 19 0.0 1.7 0.24 0.49 0.49 99 1016.8
20260905230556 70 119 0.9 2.6 0.66 0.48 0.48 98 1016.7
20260905230054 71 132 0.9 2.6 0.61 0.44 0.44 96 1016.8
20260905225549 71 8 0.9 2.6 0.31 0.37 0.37 92 1016.7
20260905225044 72 336 0.0 0.9 0.19 0.33 0.33 92 1016.5
20260905224543 73 81 3.5 3.5 0.07 0.31 0.31 89 1016.5
20260905224043 75 41 0.0 0.0 0.00 0.30 0.30 83 1016.2
20260905223541 76 76 0.0 0.0 0.00 0.30 0.30 83 1016.1
20260905223037 76 74 0.0 0.0 0.00 0.30 0.30 79 1016.1
20260905222536 77 122 0.0 0.9 0.00 0.30 0.30 79 1016.2
20260905222032 77 52 0.0 1.7 0.00 0.30 0.30 76 1016.0
20260905221528 78 66 0.0 0.0 0.00 0.30 0.30 77 1016.1
20260905221024 79 102 0.0 0.9 0.00 0.30 0.30 75 1015.9
20260905220519 80 126 0.0 0.9 0.00 0.30 0.30 68 1016.0
20260905220015 80 230 0.0 0.9 0.00 0.30 0.30 68 1015.9
20260905215509 80 271 0.0 0.9 0.00 0.30 0.30 67 1015.8
20260905215006 79 333 1.7 1.7 0.00 0.30 0.30 69 1015.9
20260905214501 80 175 0.9 1.7 0.00 0.30 0.30 66 1015.8
20260905214001 80 309 0.9 1.7 0.00 0.30 0.30 66 1015.7
20260905213457 79 226 0.9 3.5 0.00 0.30 0.30 70 1015.9
20260905212953 80 243 0.9 2.6 0.00 0.30 0.30 70 1015.8
20260905212452 80 217 1.7 1.7 0.00 0.30 0.30 70 1015.8
20260905211952 82 195 0.9 6.1 0.00 0.30 0.30 69 1015.8
20260905211447 83 243 3.5 5.2 0.00 0.30 0.30 64 1015.5
20260905210943 82 120 0.0 0.9 0.00 0.30 0.30 66 1015.7
20260905210438 82 257 2.6 2.6 0.00 0.30 0.30 66 1015.4
20260905205938 82 162 0.0 0.9 0.00 0.30 0.30 64 1015.5
20260905205432 82 174 1.7 2.6 0.00 0.30 0.30 62 1015.6
20260905204931 81 37 0.0 1.7 0.00 0.30 0.30 66 1015.6
20260905204427 80 58 0.0 2.6 0.00 0.30 0.30 67 1015.5
20260905203926 80 84 4.3 6.1 0.00 0.30 0.30 65 1015.7
20260905203422 81 13 0.9 1.7 0.00 0.30 0.30 65 1015.7
20260905202917 80 101 7.0 11.3 0.00 0.30 0.30 65 1015.7
20260905202413 81 335 0.0 2.6 0.00 0.30 0.30 64 1015.6
20260905201908 82 198 0.0 1.7 0.00 0.30 0.30 65 1015.8
20260905201403 83 149 1.7 1.7 0.00 0.30 0.30 66 1015.7
20260905200903 81 237 3.5 3.5 0.00 0.30 0.30 68 1015.7
20260905200359 81 225 0.0 1.7 0.00 0.30 0.30 66 1015.6
20260905195857 81 77 1.7 3.5 0.00 0.30 0.30 68 1015.7
20260905195352 82 50 1.7 2.6 0.00 0.30 0.30 68 1015.7
20260905194848 82 335 3.5 6.1 0.00 0.30 0.30 69 1015.9
20260905194347 83 191 0.0 3.5 0.00 0.30 0.30 66 1015.7
20260905193842 82 257 1.7 5.2 0.00 0.30 0.30 63 1015.7
20260905193337 82 191 2.6 3.5 0.00 0.30 0.30 61 1015.9
20260905192832 82 249 1.7 3.5 0.00 0.30 0.30 66 1015.7
20260905192328 83 95 1.7 1.7 0.00 0.30 0.30 68 1016.0
20260905191827 82 278 0.9 3.5 0.00 0.30 0.30 67 1016.0
20260905191326 82 220 1.7 2.6 0.00 0.30 0.30 65 1016.1
20260905190824 81 14 0.9 2.6 0.00 0.30 0.30 66 1016.3
20260905190319 80 354 3.5 6.1 0.00 0.30 0.30 67 1016.3
20260905185818 80 16 0.0 3.5 0.00 0.30 0.30 70 1016.1
20260905185313 80 9 1.7 3.5 0.00 0.30 0.30 72 1016.0
20260905184807 79 3 0.9 6.1 0.00 0.30 0.30 74 1016.3
20260905184306 79 25 0.9 1.7 0.00 0.30 0.30 75 1016.5
20260905183804 77 49 2.6 3.5 0.00 0.30 0.30 76 1016.7
20260905183300 77 59 2.6 5.2 0.00 0.30 0.30 76 1016.7
20260905182759 76 314 0.0 5.2 0.00 0.30 0.30 75 1017.0
20260905182259 77 38 3.5 3.5 0.00 0.30 0.30 78 1016.9
20260905181754 78 144 1.7 2.6 0.00 0.30 0.30 74 1017.0
20260905181248 78 240 6.1 7.0 0.00 0.30 0.30 72 1017.1
20260905180743 78 141 1.7 3.5 0.00 0.30 0.30 68 1017.2
20260905180238 79 297 1.7 2.6 0.00 0.30 0.30 70 1017.2
20260905175732 80 11 0.0 1.7 0.00 0.30 0.30 71 1017.1
20260905175227 79 330 0.9 6.1 0.00 0.30 0.30 69 1017.0
20260905174722 79 22 1.7 5.2 0.00 0.30 0.30 70 1016.9
20260905174218 79 16 0.9 3.5 0.00 0.30 0.30 71 1016.7
20260905173714 78 27 3.5 6.1 0.00 0.30 0.30 73 1016.8
20260905173209 78 67 13.0 13.9 0.00 0.30 0.30 74 1017.0
20260905172708 78 25 0.0 1.7 0.00 0.30 0.30 76 1016.8
20260905172202 77 2 0.9 1.7 0.00 0.30 0.30 78 1016.8
20260905171658 77 107 0.9 2.6 0.00 0.30 0.30 76 1016.8
20260905171154 76 130 0.0 0.0 0.00 0.30 0.30 80 1016.7
20260905170652 75 62 2.6 2.6 0.00 0.30 0.30 85 1017.0
20260905170146 75 52 1.7 2.6 0.00 0.30 0.30 89 1016.8
20260905165646 75 66 0.9 1.7 0.00 0.30 0.30 88 1016.9
20260905165141 74 23 0.9 3.5 0.00 0.30 0.30 84 1017.2
20260905164636 73 25 1.7 7.8 0.00 0.30 0.30 91 1017.1
20260905164135 73 297 0.9 0.9 0.00 0.30 0.30 92 1017.4
20260905163632 73 42 1.7 2.6 0.00 0.30 0.30 93 1017.3
20260905163128 72 21 0.0 0.9 0.00 0.30 0.30 93 1017.3
20260905162624 72 13 0.0 0.0 0.00 0.30 0.30 95 1017.2
20260905162123 71 14 0.0 0.0 0.00 0.30 0.30 96 1017.1
20260905161618 71 273 2.6 3.5 0.00 0.30 0.30 96 1017.4
20260905161116 71 271 1.7 2.6 0.00 0.30 0.30 96 1017.1
20260905160615 71 211 1.7 5.2 0.00 0.30 0.30 97 1017.1
20260905160114 70 223 1.7 1.7 0.00 0.30 0.30 99 1017.0
20260905155610 70 263 1.7 2.6 0.00 0.30 0.30 99 1017.0
20260905155108 70 233 1.7 2.6 0.00 0.30 0.30 99 1017.1
20260905154602 70 228 0.0 1.7 0.00 0.30 0.30 99 1017.2
20260905154058 69 275 0.0 0.9 0.00 0.30 0.30 98 1017.5
20260905153554 69 216 0.9 1.7 0.05 0.30 0.30 99 1017.8
20260905153054 69 259 0.9 1.7 0.05 0.30 0.30 99 1017.8